H1 CPF 2 NER 2022 6 15 9 166 01 glonass132 H2 1401201 9132 39620 2022 6 15 0 0 0 2022 6 18 23 45 0 900 1 1 0 0 0 1 H9 10 0 59745 0.00000 0 9820310.831 -18698841.506 -14334854.624 10 0 59745 900.00000 0 9390018.867 -16820876.868 -16741903.901 10 0 59745 1800.00000 0 9084555.442 -14640340.677 -18824323.289 10 0 59745 2700.00000 0 8944831.853 -12209183.544 -20541603.116 10 0 59745 3600.00000 0 9001861.150 -9587898.018 -21860278.396 10 0 59745 4500.00000 0 9275314.501 -6843217.723 -22754586.026 10 0 59745 5400.00000 0 9772567.135 -4045562.151 -23206975.532 10 0 59745 6300.00000 0 10488275.455 -1266331.950 -23208462.892 10 0 59745 7200.00000 0 11404504.894 1424833.774 -22758819.713 10 0 59745 8100.00000 0 12491404.973 3962724.823 -21866593.094 10 0 59745 9000.00000 0 13708405.082 6289041.297 -20548954.571 10 0 59745 9900.00000 0 15005882.297 8354585.595 -18831379.844 10 0 59745 10800.00000 0 16327232.360 10121073.472 -16747164.294 10 0 59745 11700.00000 0 17611257.453 11562488.195 -14336782.631 10 0 59745 12600.00000 0 18794770.388 12665920.804 -11647104.419 10 0 59745 13500.00000 0 19815305.076 13431861.190 -8730480.344 10 0 59745 14400.00000 0 20613818.108 13873927.957 -5643717.050 10 0 59745 15300.00000 0 21137266.084 14018048.984 -2446961.131 10 0 59745 16200.00000 0 21340948.383 13901128.270 797485.052 10 0 59745 17100.00000 0 21190514.832 13569256.757 4026391.386 10 0 59745 18000.00000 0 20663552.084 13075544.472 7176846.285 10 0 59745 18900.00000 0 19750680.586 12477667.644 10187495.433 10 0 59745 19800.00000 0 18456115.140 11835236.541 12999747.402 10 0 59745 20700.00000 0 16797665.176 11207097.223 15558921.385 10 0 59745 21600.00000 0 14806174.893 10648682.867 17815313.951 10 0 59745 22500.00000 0 12524427.220 10209527.646 19725163.750 10 0 59745 23400.00000 0 10005558.325 9931048.690 21251495.531 10 0 59745 24300.00000 0 7311049.699 9844689.687 22364827.788 10 0 59745 25200.00000 0 4508382.253 9970503.792 23043731.332 10 0 59745 26100.00000 0 1668450.575 10316234.606 23275229.240 10 0 59745 27000.00000 0 -1137155.160 10876932.672 23055031.944 10 0 59745 27900.00000 0 -3838887.269 11635122.407 22387604.294 10 0 59745 28800.00000 0 -6371885.909 12561511.301 21286064.628 10 0 59745 29700.00000 0 -8678423.432 13616210.742 19771918.836 10 0 59745 30600.00000 0 -10710048.219 14750416.711 17874635.277 10 0 59745 31500.00000 0 -12429340.942 15908479.685 15631069.194 10 0 59745 32400.00000 0 -13811212.582 17030277.119 13084747.778 10 0 59745 33300.00000 0 -14843692.301 18053789.533 10285029.465 10 0 59745 34200.00000 0 -15528174.288 18917772.789 7286153.277 10 0 59745 35100.00000 0 -15879114.978 19564415.274 4146195.953 10 0 59745 36000.00000 0 -15923194.597 19941869.166 925956.257 10 0 59745 36900.00000 0 -15697978.996 20006550.153 -2312212.618 10 0 59745 37800.00000 0 -15250138.387 19725109.350 -5505600.763 10 0 59745 38700.00000 0 -14633297.825 19075994.608 -8592346.960 10 0 59745 39600.00000 0 -13905609.586 18050535.250 -11512628.985 10 0 59745 40500.00000 0 -13127149.087 16653503.863 -14209816.404 10 0 59745 41400.00000 0 -12357243.448 14903130.255 -16631564.065 10 0 59745 42300.00000 0 -11651844.618 12830565.364 -18730825.395 10 0 59745 43200.00000 0 -11061057.326 10478815.541 -20466766.209 10 0 59745 44100.00000 0 -10626925.791 7901189.546 -21805561.406 10 0 59745 45000.00000 0 -10381572.597 5159320.951 -22721058.982 10 0 59745 45900.00000 0 -10345768.628 2320846.230 -23195298.188 10 0 59745 46800.00000 0 -10527995.199 -543166.624 -23218871.208 10 0 59745 47700.00000 0 -10924039.108 -3360933.379 -22791120.522 10 0 59745 48600.00000 0 -11517139.112 -6062700.892 -21920167.100 10 0 59745 49500.00000 0 -12278679.247 -8583412.824 -20622767.696 10 0 59745 50400.00000 0 -13169401.240 -10865182.885 -18924002.744 10 0 59745 51300.00000 0 -14141086.197 -12859472.469 -16856799.728 10 0 59745 52200.00000 0 -15138635.533 -14528881.452 -14461300.178 10 0 59745 53100.00000 0 -16102463.700 -15848476.806 -11784081.909 10 0 59745 54000.00000 0 -16971101.531 -16806603.110 -8877251.166 10 0 59745 54900.00000 0 -17683899.504 -17405140.822 -5797422.434 10 0 59745 55800.00000 0 -18183715.479 -17659201.669 -2604606.311 10 0 59745 56700.00000 0 -18419471.751 -17596274.695 638971.933 10 0 59745 57600.00000 0 -18348471.647 -17254860.074 3870098.816 10 0 59745 58500.00000 0 -17938376.062 -16682649.881 7025818.638 10 0 59745 59400.00000 0 -17168755.019 -15934334.481 10044673.149 10 0 59745 60300.00000 0 -16032147.608 -15069129.207 12867909.331 10 0 59745 61200.00000 0 -14534584.996 -14148127.727 15440630.426 10 0 59745 62100.00000 0 -12695554.222 -13231595.590 17712867.082 10 0 59745 63000.00000 0 -10547404.428 -12376319.458 19640547.428 10 0 59745 63900.00000 0 -8134220.910 -11633124.580 21186347.330 10 0 59745 64800.00000 0 -5510214.658 -11044665.282 22320404.998 10 0 59745 65700.00000 0 -2737695.158 -10643581.017 23020887.097 10 0 59745 66600.00000 0 115288.589 -10451094.649 23274396.679 10 0 59745 67500.00000 0 2977540.641 -10476110.507 23076216.483 10 0 59745 68400.00000 0 5777436.917 -10714848.613 22430384.329 10 0 59745 69300.00000 0 8445658.017 -11151028.898 21349600.429 10 0 59745 70200.00000 0 10917823.946 -11756596.282 19854969.481 10 0 59745 71100.00000 0 13136923.001 -12492955.150 17975583.225 10 0 59745 72000.00000 0 15055435.774 -13312660.670 15747951.986 10 0 59745 72900.00000 0 16637068.114 -14161495.699 13215296.232 10 0 59745 73800.00000 0 17858022.976 -14980846.155 10426711.602 10 0 59745 74700.00000 0 18707760.077 -15710275.467 7436223.154 10 0 59745 75600.00000 0 19189213.368 -16290190.536 4301746.468 10 0 59745 76500.00000 0 19318458.605 -16664487.829 1083974.967 10 0 59745 77400.00000 0 19123845.838 -16783068.943 -2154785.722 10 0 59745 78300.00000 0 18644633.771 -16604120.305 -5351814.577 10 0 59745 79200.00000 0 17929183.397 -16096061.254 -8445180.767 10 0 59745 80100.00000 0 17032786.589 -15239078.372 -11374935.231 10 0 59745 81000.00000 0 16015220.403 -14026180.872 -14084265.812 10 0 59745 81900.00000 0 14938129.300 -12463731.547 -16520594.127 10 0 59745 82800.00000 0 13862344.680 -10571429.439 -18636593.206 10 0 59745 83700.00000 0 12845253.814 -8381742.930 -20391106.528 10 0 59745 84600.00000 0 11938328.373 -5938814.710 -21749950.781 10 0 59745 85500.00000 0 11184916.283 -3296882.013 -22686586.610 10 0 59746 0.00000 0 10618389.891 -518275.913 -23182644.111 10 0 59746 900.00000 0 10260728.481 2328920.686 -23228292.475 10 0 59746 1800.00000 0 10121596.254 5173456.873 -22822445.232 10 0 59746 2700.00000 0 10197954.542 7943638.282 -21972797.007 10 0 59746 3600.00000 0 10474226.552 10570076.230 -20695689.098 10 0 59746 4500.00000 0 10923008.568 12988348.843 -19015805.575 10 0 59746 5400.00000 0 11506298.749 15141463.087 -16965704.520 10 0 59746 6300.00000 0 12177192.476 16982014.670 -14585192.408 10 0 59746 7200.00000 0 12881973.065 18473954.945 -11920553.054 10 0 59746 8100.00000 0 13562509.414 19593890.383 -9023645.706 10 0 59746 9000.00000 0 14158858.567 20331859.674 -5950889.821 10 0 59746 9900.00000 0 14611962.033 20691555.665 -2762156.912 10 0 59746 10800.00000 0 14866320.233 20689983.100 480408.067 10 0 59746 11700.00000 0 14872530.192 20356567.327 3713611.562 10 0 59746 12600.00000 0 14589577.317 19731752.711 6874456.996 10 0 59746 13500.00000 0 13986782.670 18865151.507 9901385.305 10 0 59746 14400.00000 0 13045322.068 17813323.109 12735484.773 10 0 59746 15300.00000 0 11759251.867 16637279.317 15321645.331 10 0 59746 16200.00000 0 10135997.659 15399822.608 17609634.049 10 0 59746 17100.00000 0 8196285.062 14162831.067 19555070.553 10 0 59746 18000.00000 0 5973515.736 12984605.325 21120283.497 10 0 59746 18900.00000 0 3512615.114 11917389.511 22275032.103 10 0 59746 19800.00000 0 868400.406 11005170.184 22997079.790 10 0 59746 20700.00000 0 -1896462.577 10281844.876 23272610.024 10 0 59746 21600.00000 0 -4713828.611 9769835.764 23096477.809 10 0 59746 22500.00000 0 -7512669.905 9479204.940 22472293.373 10 0 59746 23400.00000 0 -10221793.219 9407306.572 21412337.700 10 0 59746 24300.00000 0 -12772565.456 9538988.713 19937312.664 10 0 59746 25200.00000 0 -15101535.914 9847334.732 18075931.268 10 0 59746 26100.00000 0 -17152847.869 10294911.968 15864356.388 10 0 59746 27000.00000 0 -18880341.132 10835474.384 13345498.921 10 0 59746 27900.00000 0 -20249260.005 11416047.304 10568188.674 10 0 59746 28800.00000 0 -21237497.240 11979306.579 7586233.631 10 0 59746 29700.00000 0 -21836323.780 12466152.478 4457385.140 10 0 59746 30600.00000 0 -22050575.143 12818370.485 1242228.305 10 0 59746 31500.00000 0 -21898287.565 12981267.568 -1996981.635 10 0 59746 32400.00000 0 -21409799.761 12906173.403 -5197515.203 10 0 59746 33300.00000 0 -20626358.127 12552701.497 -8297374.440 10 0 59746 34200.00000 0 -19598283.704 11890674.978 -11236485.758 10 0 59746 35100.00000 0 -18382777.391 10901635.528 -13957857.406 10 0 59746 36000.00000 0 -17041454.853 9579871.073 -16408679.659 10 0 59746 36900.00000 0 -15637713.852 7932917.660 -18541346.772 10 0 59746 37800.00000 0 -14234043.746 5981512.601 -20314381.208 10 0 59746 38700.00000 0 -12889389.362 3758998.587 -21693242.399 10 0 59746 39600.00000 0 -11656679.432 1310201.293 -22651004.239 10 0 59746 40500.00000 0 -10580623.041 -1310175.183 -23168887.927 10 0 59746 41400.00000 0 -9695866.610 -4039570.605 -23236639.295 10 0 59746 42300.00000 0 -9025589.158 -6809926.395 -22852742.475 10 0 59746 43200.00000 0 -8580595.419 -9550282.582 -22024464.783 10 0 59746 44100.00000 0 -8358945.726 -12189507.036 -20767730.723 10 0 59746 45000.00000 0 -8346139.093 -14659043.956 -19106826.334 10 0 59746 45900.00000 0 -8515842.611 -16895567.327 -17073938.340 10 0 59746 46800.00000 0 -8831137.016 -18843428.358 -14708535.990 10 0 59746 47700.00000 0 -9246226.190 -20456794.028 -12056606.804 10 0 59746 48600.00000 0 -9708538.269 -21701386.551 -9169760.666 10 0 59746 49500.00000 0 -10161128.925 -22555750.127 -6104219.666 10 0 59746 50400.00000 0 -10545284.067 -23011991.265 -2919713.946 10 0 59746 51300.00000 0 -10803210.346 -23075961.390 321694.082 10 0 59746 52200.00000 0 -10880697.750 -22766874.357 3556832.945 10 0 59746 53100.00000 0 -10729639.695 -22116375.714 6722667.307 10 0 59746 54000.00000 0 -10310302.143 -21167104.212 9757539.362 10 0 59746 54900.00000 0 -9593244.116 -19970807.768 12602380.759 10 0 59746 55800.00000 0 -8560807.248 -18586095.083 15201870.117 10 0 59746 56700.00000 0 -7208110.627 -17075919.414 17505512.828 10 0 59746 57600.00000 0 -5543508.557 -15504901.974 19468621.769 10 0 59746 58500.00000 0 -3588491.962 -13936608.731 21053179.911 10 0 59746 59400.00000 0 -1377037.718 -12430895.642 22228568.751 10 0 59746 60300.00000 0 1045566.537 -11041433.709 22972149.407 10 0 59746 61200.00000 0 3624372.647 -9813517.038 23269686.380 10 0 59746 62100.00000 0 6296828.218 -8782244.501 23115607.225 10 0 59746 63000.00000 0 8995153.451 -7971149.418 22513094.524 10 0 59746 63900.00000 0 11648939.920 -7391332.719 21474009.693 10 0 59746 64800.00000 0 14187864.095 -7041133.715 20018651.144 10 0 59746 65700.00000 0 16544403.972 -6906350.295 18175352.234 10 0 59746 66600.00000 0 18656447.192 -6960997.567 15979927.209 10 0 59746 67500.00000 0 20469683.869 -7168571.715 13474975.940 10 0 59746 68400.00000 0 21939686.189 -7483765.089 10709060.661 10 0 59746 69300.00000 0 23033589.792 -7854559.982 7735770.241 10 0 59746 70200.00000 0 23731308.299 -8224612.924 4612689.471 10 0 59746 71100.00000 0 24026231.564 -8535829.394 1400292.563 10 0 59746 72000.00000 0 23925379.340 -8731020.912 -1839218.403 10 0 59746 72900.00000 0 23449004.525 -8756533.032 -5043108.365 10 0 59746 73800.00000 0 22629662.785 -8564733.829 -8149315.136 10 0 59746 74700.00000 0 21510787.343 -8116258.172 -11097643.430 10 0 59746 75600.00000 0 20144828.198 -7381913.005 -13830924.581 10 0 59746 76500.00000 0 18591033.050 -6344162.764 -16296120.044 10 0 59746 77400.00000 0 16912962.058 -4998131.340 -18445347.605 10 0 59746 78300.00000 0 15175839.670 -3352076.856 -20236810.802 10 0 59746 79200.00000 0 13443853.577 -1427317.282 -21635613.671 10 0 59746 80100.00000 0 11777513.211 742392.361 -22614444.933 10 0 59746 81000.00000 0 10231177.869 3112007.698 -23154118.141 10 0 59746 81900.00000 0 8850857.697 5626822.300 -23243956.766 10 0 59746 82800.00000 0 7672379.702 8224508.986 -22882015.990 10 0 59746 83700.00000 0 6719995.873 10837492.117 -22075135.885 10 0 59746 84600.00000 0 6005492.260 13395553.626 -20838823.779 10 0 59746 85500.00000 0 5527837.007 15828565.068 -19196966.815 10 0 59747 0.00000 0 5273382.707 18069232.080 -17181379.241 10 0 59747 900.00000 0 5216614.920 20055737.720 -14831190.941 10 0 59747 1800.00000 0 5321415.798 21734170.653 -12192091.114 10 0 59747 2700.00000 0 5542788.881 23060639.774 -9315437.689 10 0 59747 3600.00000 0 5828971.988 24002982.599 -6257252.466 10 0 59747 4500.00000 0 6123847.621 24541996.088 -3077121.006 10 0 59747 5400.00000 0 6369547.454 24672137.352 162980.207 10 0 59747 6300.00000 0 6509138.842 24401664.593 3399905.245 10 0 59747 7200.00000 0 6489277.640 23752212.585 6570583.462 10 0 59747 8100.00000 0 6262713.068 22757821.414 9613261.644 10 0 59747 9000.00000 0 5790536.793 21463460.565 12468717.926 10 0 59747 9900.00000 0 5044079.695 19923112.087 15081422.472 10 0 59747 10800.00000 0 4006375.063 18197495.127 17400621.551 10 0 59747 11700.00000 0 2673125.864 16351529.095 19381323.495 10 0 59747 12600.00000 0 1053135.098 14451643.335 20985167.443 10 0 59747 13500.00000 0 -831818.782 12563046.998 22181158.624 10 0 59747 14400.00000 0 -2947655.962 10747073.761 22946256.887 10 0 59747 15300.00000 0 -5249190.270 9058712.209 23265808.329 10 0 59747 16200.00000 0 -7681794.931 7544424.118 23133813.105 10 0 59747 17100.00000 0 -10183469.574 6240340.264 22553025.665 10 0 59747 18000.00000 0 -12687222.501 5170907.187 21534886.778 10 0 59747 18900.00000 0 -15123669.610 4348039.226 20099289.750 10 0 59747 19800.00000 0 -17423742.737 3770808.979 18274186.092 10 0 59747 20700.00000 0 -19521395.781 3425687.031 16095038.736 10 0 59747 21600.00000 0 -21356197.405 3287319.030 13604133.446 10 0 59747 22500.00000 0 -22875703.792 3319806.077 10849761.520 10 0 59747 23400.00000 0 -24037514.010 3478433.717 7885289.210 10 0 59747 24300.00000 0 -24810923.587 3711776.309 4768131.227 10 0 59747 25200.00000 0 -25178108.441 3964088.122 1558647.451 10 0 59747 26100.00000 0 -25134790.433 4177880.646 -1681016.461 10 0 59747 27000.00000 0 -24690357.282 4296577.845 -4888122.918 10 0 59747 27900.00000 0 -23867431.899 4267137.804 -8000548.317 10 0 59747 28800.00000 0 -22700908.971 4042530.494 -10957978.234 10 0 59747 29700.00000 0 -21236498.587 3583967.224 -13703069.392 10 0 59747 30600.00000 0 -19528837.068 2862787.454 -16182556.422 10 0 59747 31500.00000 0 -17639243.124 1861922.787 -18348282.309 10 0 59747 32400.00000 0 -15633212.155 576875.253 -20158132.933 10 0 59747 33300.00000 0 -13577752.414 -983832.978 -21576857.758 10 0 59747 34200.00000 0 -11538673.470 -2798759.411 -22576760.687 10 0 59747 35100.00000 0 -9577939.519 -4834188.872 -23138247.482 10 0 59747 36000.00000 0 -7751197.548 -7045304.460 -23250218.640 10 0 59747 36900.00000 0 -6105583.464 -9377835.329 -22910299.305 10 0 59747 37800.00000 0 -4677897.863 -11770114.796 -22124900.809 10 0 59747 38700.00000 0 -3493227.959 -14155464.743 -20909111.433 10 0 59747 39600.00000 0 -2564073.819 -16464808.052 -19286417.245 10 0 59747 40500.00000 0 -1890015.907 -18629400.760 -17288257.198 10 0 59747 41400.00000 0 -1457938.211 -20583569.889 -14953419.953 10 0 59747 42300.00000 0 -1242797.760 -22267341.946 -12327293.367 10 0 59747 43200.00000 0 -1208907.860 -23628851.211 -9460980.739 10 0 59747 44100.00000 0 -1311680.346 -24626425.719 -6410300.952 10 0 59747 45000.00000 0 -1499752.238 -25230262.179 -3234692.495 10 0 59747 45900.00000 0 -1717405.418 -25423618.445 3956.421 10 0 59747 46800.00000 0 -1907175.151 -25203472.692 3242527.606 10 0 59747 47700.00000 0 -2012535.000 -24580621.313 6417917.139 10 0 59747 48600.00000 0 -1980542.428 -23579211.714 9468278.296 10 0 59747 49500.00000 0 -1764331.130 -22235730.429 12334237.469 10 0 59747 50400.00000 0 -1325343.005 -20597490.360 14960058.009 10 0 59747 51300.00000 0 -635204.160 -18720682.168 17294728.545 10 0 59747 52200.00000 0 322835.119 -16668073.139 19292954.174 10 0 59747 53100.00000 0 1552957.481 -14506451.471 20916031.279 10 0 59747 54000.00000 0 3046372.459 -12303924.013 22132589.640 10 0 59747 54900.00000 0 4781464.072 -10127181.017 22919188.370 10 0 59747 55800.00000 0 6724485.494 -8038842.167 23260755.406 10 0 59747 56700.00000 0 8830771.372 -6094993.900 23150863.449 10 0 59747 57600.00000 0 11046416.931 -4343019.430 22591838.488 10 0 59747 58500.00000 0 13310353.702 -2819810.151 21594700.060 10 0 59747 59400.00000 0 15556735.672 -1550430.828 20178935.545 10 0 59747 60300.00000 0 17717537.013 -547291.837 18372113.578 10 0 59747 61200.00000 0 19725253.981 190139.278 16209344.533 10 0 59747 62100.00000 0 21515599.544 675077.095 13732598.618 10 0 59747 63000.00000 0 23030079.657 932621.255 10989894.530 10 0 59747 63900.00000 0 24218344.955 998457.827 8034374.013 10 0 59747 64800.00000 0 25040220.922 917114.660 4923279.584 10 0 59747 65700.00000 0 25467332.736 739844.535 1716854.477 10 0 59747 66600.00000 0 25484257.609 522225.319 -1522814.554 10 0 59747 67500.00000 0 25089156.842 321578.070 -4732989.969 10 0 59747 68400.00000 0 24293861.225 194311.600 -7851489.347 10 0 59747 69300.00000 0 23123405.897 193305.099 -10817881.664 10 0 59747 70200.00000 0 21615033.514 365439.035 -13574651.441 10 0 59747 71100.00000 0 19816706.494 749378.452 -16068308.725 10 0 59747 72000.00000 0 17785189.457 1373702.494 -18250423.754 10 0 59747 72900.00000 0 15583780.757 2255459.796 -20078566.633 10 0 59747 73800.00000 0 13279786.558 3399211.846 -21517133.966 10 0 59747 74700.00000 0 10941841.766 4796606.274 -22538046.375 10 0 59747 75600.00000 0 8637188.534 6426500.153 -23121303.185 10 0 59747 76500.00000 0 6429025.033 8255630.547 -23255383.023 10 0 59747 77400.00000 0 4374034.611 10239806.675 -22937481.816 10 0 59747 78300.00000 0 2520198.156 12325576.172 -22173582.608 10 0 59747 79200.00000 0 904980.974 14452297.844 -20978354.661 10 0 59747 80100.00000 0 -446029.792 16554535.802 -19374882.539 10 0 59747 81000.00000 0 -1519979.909 18564675.868 -17394229.171 10 0 59747 81900.00000 0 -2317058.924 20415655.182 -15074840.213 10 0 59747 82800.00000 0 -2850253.906 22043690.411 -12461800.459 10 0 59747 83700.00000 0 -3144556.626 23390889.455 -9605956.250 10 0 59747 84600.00000 0 -3235658.072 24407635.903 -6562920.840 10 0 59747 85500.00000 0 -3168186.283 25054644.701 -3391982.617 10 0 59748 0.00000 0 -2993563.370 25304601.292 -154938.550 10 0 59748 900.00000 0 -2767573.935 25143314.189 3085124.893 10 0 59748 1800.00000 0 -2547750.045 24570331.492 6265073.665 10 0 59748 2700.00000 0 -2390685.248 23598995.602 9322970.935 10 0 59748 3600.00000 0 -2349393.578 22255933.676 12199294.611 10 0 59748 4500.00000 0 -2470827.033 20580006.223 14838104.308 10 0 59748 5400.00000 0 -2793657.955 18620759.091 17188133.845 10 0 59748 6300.00000 0 -3346420.983 16436445.093 19203787.617 10 0 59748 7200.00000 0 -4146093.471 14091699.525 20846021.479 10 0 59748 8100.00000 0 -5197174.264 11654967.929 22083091.620 10 0 59748 9000.00000 0 -6491299.337 9195794.220 22891157.887 10 0 59748 9900.00000 0 -8007409.945 6782082.617 23254731.056 10 0 59748 10800.00000 0 -9712465.713 4477447.014 23166956.882 10 0 59748 11700.00000 0 -11562672.383 2338757.117 22629732.826 10 0 59748 12600.00000 0 -13505172.538 413982.005 21653656.539 10 0 59748 13500.00000 0 -15480128.751 -1259581.234 20257808.193 10 0 59748 14400.00000 0 -17423112.449 -2656622.342 18469371.650 10 0 59748 15300.00000 0 -19267699.409 -3764623.784 16323102.266 10 0 59748 16200.00000 0 -20948164.408 -4584126.481 13860651.731 10 0 59748 17100.00000 0 -22402163.607 -5128446.437 11129762.791 10 0 59748 18000.00000 0 -23573293.674 -5422855.837 8183349.059 10 0 59748 18900.00000 0 -24413421.826 -5503264.324 5078477.089 10 0 59748 19800.00000 0 -24884690.250 -5414456.703 1875269.680 10 0 59748 20700.00000 0 -24961111.729 -5207961.551 -1364249.024 10 0 59748 21600.00000 0 -24629690.052 -4939640.536 -4577345.084 10 0 59748 22500.00000 0 -23891018.318 -4667099.784 -7701780.586 10 0 59748 23400.00000 0 -22759329.706 -4447032.087 -10677010.990 10 0 59748 24300.00000 0 -21261997.899 -4332601.660 -13445351.399 10 0 59748 25200.00000 0 -19438506.970 -4370981.562 -15953089.732 10 0 59748 26100.00000 0 -17338932.585 -4601147.631 -18151525.542 10 0 59748 27000.00000 0 -15021996.503 -5052022.335 -19997914.753 10 0 59748 27900.00000 0 -12552774.050 -5741047.559 -21456302.189 10 0 59748 28800.00000 0 -10000148.801 -6673247.661 -22498225.697 10 0 59748 29700.00000 0 -7434119.183 -7840823.914 -23103278.070 10 0 59748 30600.00000 0 -4923068.091 -9223299.458 -23259515.388 10 0 59748 31500.00000 0 -2531108.501 -10788210.876 -22963703.135 10 0 59748 32400.00000 0 -315615.100 -12492319.733 -22221394.354 10 0 59748 33300.00000 0 1674955.405 -14283295.423 -21046837.162 10 0 59748 34200.00000 0 3402864.243 -16101800.529 -19462712.150 10 0 59748 35100.00000 0 4842435.458 -17883892.623 -17499703.486 10 0 59748 36000.00000 0 5980889.193 -19563642.462 -15195910.894 10 0 59748 36900.00000 0 6818628.234 -21075858.736 -12596113.051 10 0 59748 37800.00000 0 7368965.855 -22358804.433 -9750896.225 10 0 59748 38700.00000 0 7657306.782 -23356789.583 -6715664.951 10 0 59748 39600.00000 0 7719816.523 -24022529.938 -3549554.498 10 0 59748 40500.00000 0 7601636.445 -24319170.789 -314267.141 10 0 59748 41400.00000 0 7354721.620 -24221889.261 2927143.889 10 0 59748 42300.00000 0 7035394.759 -23719006.432 6111517.460 10 0 59748 43200.00000 0 6701721.877 -22812561.679 9176828.813 10 0 59748 44100.00000 0 6410822.801 -21518324.840 12063409.303 10 0 59748 45000.00000 0 6216232.259 -19865245.950 14715116.428 10 0 59748 45900.00000 0 6165424.722 -17894366.373 17080430.516 10 0 59748 46800.00000 0 6297608.734 -15657237.992 19113456.262 10 0 59748 47700.00000 0 6641884.440 -13213917.843 20774809.658 10 0 59748 48600.00000 0 7215842.128 -10630623.110 22032373.641 10 0 59748 49500.00000 0 8024660.502 -7977145.129 22861908.788 10 0 59748 50400.00000 0 9060741.990 -5324130.653 23247508.403 10 0 59748 51300.00000 0 10303899.654 -2740343.380 23181890.687 10 0 59748 52200.00000 0 11722087.167 -290018.868 22666523.712 10 0 59748 53100.00000 0 13272640.614 1969578.406 21711582.153 10 0 59748 54000.00000 0 14903979.861 3990296.159 20335737.710 10 0 59748 54900.00000 0 16557698.263 5734846.718 18565788.055 10 0 59748 55800.00000 0 18170953.609 7178100.116 16436131.968 10 0 59748 56700.00000 0 19679060.935 8307866.451 13988100.943 10 0 59748 57600.00000 0 21018179.574 9125137.136 11269159.972 10 0 59748 58500.00000 0 22127982.956 9643776.920 8331992.603 10 0 59748 59400.00000 0 22954200.378 9889681.197 5233487.377 10 0 59748 60300.00000 0 23450925.183 9899435.118 2033644.500 10 0 59748 61200.00000 0 23582593.290 9718531.492 -1205576.740 10 0 59748 62100.00000 0 23325549.554 9399222.704 -4421448.265 10 0 59748 63000.00000 0 22669136.314 8998097.025 -7551678.918 10 0 59748 63900.00000 0 21616258.150 8573481.105 -10535612.783 10 0 59748 64800.00000 0 20183398.431 8182777.722 -13315397.551 10 0 59748 65700.00000 0 18400085.816 7879850.635 -15837100.845 10 0 59748 66600.00000 0 16307831.623 7712566.546 -18051753.196 10 0 59748 67500.00000 0 13958580.821 7720597.776 -19916297.868 10 0 59748 68400.00000 0 11412739.536 7933578.617 -21394429.295 10 0 59748 69300.00000 0 8736859.598 8369693.762 -22457303.848 10 0 59748 70200.00000 0 6001074.978 9034759.420 -23084108.983 10 0 59748 71100.00000 0 3276395.359 9921837.349 -23262479.301 10 0 59748 72000.00000 0 631968.440 11011399.900 -22988750.710 10 0 59748 72900.00000 0 -1867575.911 12272041.171 -22268046.848 10 0 59748 73800.00000 0 -4164589.567 13661706.412 -21114194.924 10 0 59748 74700.00000 0 -6210575.475 15129389.859 -19549471.370 10 0 59748 75600.00000 0 -7967971.864 16617231.108 -17604180.953 10 0 59748 76500.00000 0 -9411476.544 18062922.873 -15316076.344 10 0 59748 77400.00000 0 -10528855.539 19402329.180 -12729628.544 10 0 59748 78300.00000 0 -11321202.093 20572203.558 -9895161.774 10 0 59748 79200.00000 0 -11802635.314 21512891.924 -6867869.519 10 0 59748 80100.00000 0 -11999451.604 22170904.931 -3706731.316 10 0 59748 81000.00000 0 -11948765.678 22501249.825 -473352.192 10 0 59748 81900.00000 0 -11696699.875 22469421.799 2769251.442 10 0 59748 82800.00000 0 -11296200.058 22052969.414 5957894.174 10 0 59748 83700.00000 0 -10804572.451 21242566.912 9030466.469 10 0 59748 84600.00000 0 -10280847.718 20042547.506 11927156.245 10 0 59748 85500.00000 0 -9783085.756 18470875.010 14591621.935 99